{"data":{"norad_id":57218,"epoch":"2026-05-25T04:05:48.943104Z","epoch_age_seconds":60065,"freshness":"FRESH","line1":"1 57218U 23094A   26145.17070536  .00000045  00000+0  11141-4 0  9998","line2":"2 57218  43.0002 318.6851 0001107 259.9055 100.1672 15.27576299158813","mean_motion":15.27576299,"eccentricity":0.0001107,"inclination_deg":43.0002,"raan_deg":318.6851,"arg_perigee_deg":259.9055,"mean_anomaly_deg":100.1672,"bstar":1.1141e-5,"rev_number":15881,"period_min":94.266977102399,"perigee_km":482.30064365983,"apogee_km":483.81971271508,"semimajor_km":6861.1971781875,"source":"CELESTRAK","updated_at":"2026-05-25T13:38:18.251409Z"}}